Weather Service Report


173 
ASUS42 KTBW 281810
RWRFL 
FLORIDA REGIONAL WEATHER ROUNDUP
NATIONAL WEATHER SERVICE TAMPA BAY RUSKIN FL
200 PM EDT MON JUL 28 2014

NOTE: "FAIR" INDICATES FEW OR NO CLOUDS BELOW 12,000 FEET WITH NO
SIGNIFICANT WEATHER AND/OR OBSTRUCTIONS TO VISIBILITY.


FLZ001>010-012>015-112-114-115-281900-
PANHANDLE FLORIDA
  
CITY           SKY/WX    TMP DP  RH WIND       PRES   REMARKS
PENSACOLA      MOSUNNY   91  73  55 NW8G17    30.00F HX  99           
PENSACOLA NAS  PTSUNNY   92  74  55 W7        30.01F HX 101           
MILTON NAS     PTSUNNY   93  74  53 W10       30.01F HX 103           
CRESTVIEW      MOSUNNY   93  73  52 W12       30.01F HX 102           
DUKE FIELD     PTSUNNY   94  75  54 W10       30.00F HX 105           
VALPARAISO     MOSUNNY   91  78  66 SW10      29.99F HX 106           
TRI COUNTY     FAIR      93  75  55 VRB6      29.98F HX 104           
PANAMA CITY    MOCLDY    91  78  65 SW14      29.98F HX 106           
TYNDALL AFB    MOSUNNY   88  81  79 W20G26    30.02F HX 106           
APALACHICOLA   MOSUNNY   88  76  67 W15       30.00F HX  99           

STATION/POSITION SKY/WX   TEMP    WIND        PRES    WAVE   SWELL
                          AIR SEA DIR/SP/G            HT/PER HT/PER
                          (F)     (DEG/KT/KT) (MB)    (FT/S) (FT/S)
30.1N   87.6W              83 83  260/ 16/ 17 1016.9F   3/ 5
29.2N   88.2W              84 86  290/ 16/ 17 1018.5F
28.8N   86.0W              81 85  300/ 17/ 21 1017.5F   5/ 5
PANAMA CITY BEAC           83 84  250/ 16/ 18 1016.2F
CAPE SAN BLAS    NOT AVBL
TOWER C                    82     250/ 21/ 24 1016.9F
28.5N   84.5W              83 86  300/ 14/ 17 1017.6F   4/ 5

$$
FLZ011-016>038-118-127-128-134-139-239-281900-
NORTH FLORIDA
  
CITY           SKY/WX    TMP DP  RH WIND       PRES   REMARKS
MARIANNA       SUNNY     94  75  54 W12       29.98F HX 105           
TALLAHASSEE    PTSUNNY   97  76  50 W10       29.98  HX 111           
PERRY          MOSUNNY   88  79  74 SW8       29.99F THUNDER HX 102   
CROSS CITY       N/A     92  78  63 W17G24    30.00F HX 107           
GAINESVILLE    PTSUNNY   89  74  60 W14G23    29.99F HX  98           
MAYPORT NAS    MOSUNNY   93  75  55 W14       29.95F HX 104           
JACKSONVILLE   PTSUNNY   94  75  54 W15       29.94F HX 105           
JAX NAS        PTSUNNY   95  74  50 W12       29.96F HX 105           
JAX CRAIG      MOSUNNY   94  76  55 W9        29.95F HX 106           
JAX CECIL      PTSUNNY   91  77  62 W9G24     29.96F HX 105           
FERNANDINA BEA FAIR      95  73  49 W10       29.93F HX 105           
ST AUGUSTINE   PTSUNNY   94  75  54 W8        29.97F HX 105           

STATION/POSITION SKY/WX   TEMP    WIND        PRES    WAVE   SWELL
                          AIR SEA DIR/SP/G            HT/PER HT/PER
                          (F)     (DEG/KT/KT) (MB)    (FT/S) (FT/S)
SHELL POINT      NOT AVBL
KEATON BEACH               85     240/ 18/ 20 1015.9F
CEDAR KEY                  86     260/ 14/ 18 1017.0F
FERNANDINA                 90 85  240/ 13/ 17 1013.4F
30.7N   81.3W                 85                N/A     1/11
MAYPORT                    90 85  280/  9/ 14   N/A
31.4N   80.9W              86 85  220/ 12/ 14 1012.8F   2/ 9   2/ 9
ST AUGUSTINE               91     240/  9/ 11 1015.5F

$$
FLZ040-043>046-052-053-057-058-063-144-281900-
INTERIOR CENTRAL FLORIDA
  
CITY           SKY/WX    TMP DP  RH WIND       PRES   REMARKS
OCALA          MOSUNNY   88  72  58 W12       30.03F                  
LEESBURG       MOSUNNY   92  76  59 W8G20     30.02F HX 104           
SANFORD        MOSUNNY   92  76  59 W16G26    30.01F HX 104           
ORLANDO EXEC   MOSUNNY   91  75  59 W15       30.02F HX 101           
ORLANDO INTL   PTSUNNY   91  74  57 W12       30.02F HX 100           
KISSIMMEE      PTSUNNY   86  75  70 W12G21    30.03F HX  95           
WINTER HAVEN   PTSUNNY   91  71  51 NW9G20    30.05F HX  97           
LAKELAND       MOSUNNY   91  72  52 W13G20    30.05S HX  98           
BARTOW         MOSUNNY   91  72  52 W13G21    30.05F HX  98           
OKEECHOBEE     MOSUNNY   90  73  58 MISG      30.05F HX  98           

$$
FLZ041-047-054-059-064-141-147-281900-
EAST CENTRAL FLORIDA
  
CITY           SKY/WX    TMP DP  RH WIND       PRES   REMARKS
ORMOND BEACH   MOSUNNY   91  75  59 SW12G20   29.99F HX 102           
DAYTONA BEACH  MOSUNNY   91  76  61 SW13      30.00F HX 103           
DELAND         PTCLDY    90  77  66 MISG      30.02F HX 102           
NEW SMYRNA BEA SUNNY     91  73  55 W18       30.00F HX 100           
JFK SPACE CTR  DRIZZLE   91  79  66 SW12      30.00F HX 107           
TITUSVILLE     MOSUNNY   90  75  62 W12       30.02F HX 100           
CAPE CANAVERAL PTSUNNY   93  74  53 W10       30.00F HX 102           
PATRICK AFB    MOSUNNY   92  75  57 SW9       30.02F HX 104           
MELBOURNE      MOSUNNY   92  73  53 SW16      30.02F HX 100           
VERO BEACH     MOSUNNY   91  74  57 W9        30.03F HX 100           
FT PIERCE      MOSUNNY   93  72  50 W12       30.03F HX 101           
STUART         PTSUNNY   91  72  52 W12       30.05F HX  98           

STATION/POSITION SKY/WX   TEMP    WIND        PRES    WAVE   SWELL
                          AIR SEA DIR/SP/G            HT/PER HT/PER
                          (F)     (DEG/KT/KT) (MB)    (FT/S) (FT/S)
28.5N   80.2W              84 85  210/ 10/ 12 1017.1F
28.9N   78.5W              84 85  250/ 14/ 16 1016.6F   4/ 5   2/ 9
TRIDENT PIER               90 86  230/ 13/ 16 1016.0F
28.4N   80.5W                 85                N/A     1/ 9
27.6N   80.2W                 84                N/A     1/ 9

$$
FLZ050-056-061-142-242-148-248-149-249-151-251-155-255-
160-260-281900-
WEST CENTRAL FLORIDA
  
CITY           SKY/WX    TMP DP  RH WIND       PRES   REMARKS
CRYSTAL RIVER  MOCLDY    86  77  74 W13G20    30.04F HX  97           
INVERNESS      MOCLDY    88  70  55 NW6G22    30.04S                  
BROOKSVILLE    PTSUNNY   93  73  52 W20       30.05F HX 102           
ZEPHYRHILLS    FAIR      90  72  55 W12G18    30.06S HX  96           
CLEARWATER     MOSUNNY   91  73  55 W15       30.06S HX  99           
TAMPA INTL     PTSUNNY   88  74  63 W15G21    30.06S HX  96           
TAMPA EXEC     LGT RAIN  82  75  78 CALM      30.06S                  
PLANT CITY     PTSUNNY   93  72  49 W10G17    30.07S HX 100           
MACDILL AFB    PTSUNNY   93  77  60 W8G18     30.06F HX 107           
ST PETERSBURG  MOSUNNY   90  73  57 W14G23    30.04F HX  98           
SARASOTA       SUNNY     92  74  55 W14       30.06F HX 101           
VENICE         FAIR      90  75  62 W12       30.08S HX 100           

STATION/POSITION SKY/WX   TEMP    WIND        PRES    WAVE   SWELL
                          AIR SEA DIR/SP/G            HT/PER HT/PER
                          (F)     (DEG/KT/KT) (MB)    (FT/S) (FT/S)
CEDAR KEY                  86     260/ 14/ 18 1017.0F
28.5N   84.5W              83 86  300/ 14/ 17 1017.6F   4/ 5
27.3N   84.3W                 88                N/A     2/ 4
CLEARWATER BEACH           86 89  270/ 12/ 16 1017.8F
MIDDLE TAMPA BAY           87     290/ 14/ 16 1018.3F
VENICE                     86 91  280/ 10/ 11 1017.9F

$$
FLZ066-069-070-075>078-162-262-165-265-281900-
SOUTHWEST FLORIDA AND KEYS
  
CITY           SKY/WX    TMP DP  RH WIND       PRES   REMARKS
PUNTA GORDA    PTSUNNY   94  71  47 W10G20    30.08F HX 101           
FT MYERS       CLOUDY    85  77  77 W10       30.07F HX  95           
SOUTHWEST INTL CLOUDY    83  76  79 W6        30.08F                  
NAPLES         PTSUNNY   89  76  65 W9        30.08  HX 100           
MARATHON       PTSUNNY   88  77  69 N7        30.09S HX 100           
KEY WEST NAS   PTSUNNY   92  77  61 VRB5      30.09F HX 105           
KEY WEST INTL  PTSUNNY   89  76  65 N3        30.10S HX 100           

STATION/POSITION SKY/WX   TEMP    WIND        PRES    WAVE   SWELL
                          AIR SEA DIR/SP/G            HT/PER HT/PER
                          (F)     (DEG/KT/KT) (MB)    (FT/S) (FT/S)
VENICE                     86 91  280/ 10/ 11 1017.9F
NAPLES                     87 93  290/  7/  9 1019.3F
DRY TORTUGAS               87     360/  3/  4 1019.2F
SAND KEY                   87     290/  2/  3 1019.1F
SOMBRERO KEY               87      CALM  /  4 1019.8S
LONG KEY                   87 92   CALM  /  1 1019.6F
MOLASSES REEF              86 87  200/  1/  3 1018.8F

$$
FLZ067-068-071>074-168-172>174-281900-
SOUTHEAST FLORIDA 
  
CITY           SKY/WX    TMP DP  RH WIND       PRES   REMARKS
W PALM BEACH   PTSUNNY   92  72  51 W13       30.05F HX  99           
FT LAUDER-EXEC MOSUNNY   93  75  55 VRB7      30.06F HX 104           
FT LAUDERDALE  PTSUNNY   92  72  51 S12       30.06F HX  99           
POMPANO BEACH  MOSUNNY  N/A N/A N/A SE12      30.06F                  
PEMBROKE PINES MOSUNNY   93  72  50 W9        30.07F HX 101           
OPA LOCKA      MOSUNNY   93  68  43 SW5       30.07F HX  97           
MIAMI          PTSUNNY   95  67  39 W6        30.07F HX  99           
WEST KENDALL   MOSUNNY   95  69  42 NW6       30.07F HX 100           
HOMESTEAD      NOT AVBL                                               

STATION/POSITION SKY/WX   TEMP    WIND        PRES    WAVE   SWELL
                          AIR SEA DIR/SP/G            HT/PER HT/PER
                          (F)     (DEG/KT/KT) (MB)    (FT/S) (FT/S)
PORT EVERGLADES            87     140/ 10/ 12 1018.1
VIRGINIA KEY               87 89  150/  8/  9   N/A
LAKE WORTH                 90 83              1017.4F
FOWEY ROCKS                86 87  120/  3/  4 1018.8F
SETTLEMENT POINT           84     290/  8/ 10 1018.7F

$$


Return to Home page


Western Regional Climate Center, wrcc@dri.edu